Tracking 18957 objects as of 23-Jan-2018
HD Live streaming from Space Station
objects crossing your sky now

FENGYUN 1C DEB

Track FENGYUN 1C DEB now!
10-day predictions


NORAD ID: 31805
Int'l Code: 1999-025CGT
Perigee: 580.6 km
Apogee: 1,400.4 km
Inclination: 98.4 °
Period: 104.8 minutes
Semi major axis: 7361 km
RCS: 0.0166 m2 (small)
Launch date: May 10, 1999
Source: People's Republic of China (PRC)
Launch site: Taiyaun Space Center, China (TSC)

Note: This is SATELLITE DEBRIS
aabbcc
Your satellite tracking list
Your tracking list is empty




NASA's NSSDC Master Catalog

Two Line Element Set (TLE):
1 31805U 99025CGT 18021.89158952 +.00000561 +00000-0 +20217-3 0  9998
2 31805 098.4199 272.6339 0556848 140.1620 224.1824 13.74521653531785
Source of the keplerian elements: AFSPC